Weather History for Mackinac Island, MI

Change the Weather History Date:

Sunday, October 13, 2013

  Actual Average Record
Temperature  
Mean Temperature 54 °F -  
Max Temperature 61 °F 52 °F 78 °F (2008)
Min Temperature 46 °F 41 °F 29 °F (1974)
Degree Days  
Heating Degree Days 12    
Growing Degree Days 4 (Base 50)    
Moisture  
Dew Point 45 °F    
Average Humidity 73    
Maximum Humidity 88    
Minimum Humidity 67    
Precipitation  
Precipitation 0.00 in - - ()
Sea Level Pressure  
Sea Level Pressure 30.22 in    
Wind  
Wind Speed 11 mph (WNW)    
Max Wind Speed 17 mph    
Max Gust Speed 26 mph    
Visibility 10 miles    
Events      
Averages and records for this station are not official NWS values.
T = Trace of Precipitation, MM = Missing Value Source: NWS Daily Summary

Daily Weather History Graph

Daily Weather History Graph

Search for Another Location

Airport:

Trip Planner

Search our weather history database for the weather conditions in past years. The results will help you decide how hot, cold, wet, or windy it might be!

Date:

Astronomy

Oct. 13, 2013 Rise Set
Actual Time 7:52 AM EDT 6:55 PM EDT
Civil Twilight 7:22 AM EDT 7:25 PM EDT
Nautical Twilight 6:48 AM EDT 8:00 PM EDT
Astronomical Twilight 6:13 AM EDT 8:34 PM EDT
Moon 4:01 PM EDT (10/13) 1:44 AM EDT (10/13)
Length of Visible Light 12h 02m
Length of Day
11h 02m
Waxing Gibbous, 69% of the Moon is Illuminated
Oct 13
Waxing Gibbous
Oct 18
Full
Oct 26
Last Quarter
Nov 3
New
Nov 10
First Quarter

Hourly Weather History & Observations

Time (EDT) Temp. Dew Point Humidity Pressure Visibility Wind Dir Wind Speed Gust Speed Precip Events Conditions
12:18 AM 61.2 °F 57.7 °F 88% 30.00 in 10.0 mi WSW 13.8 mph 21.9 mph N/A   Overcast
12:39 AM 59.9 °F 55.0 °F 84% 30.01 in 10.0 mi WSW 13.8 mph 21.9 mph N/A   Overcast
12:58 AM 59.5 °F 52.2 °F 77% 30.01 in 10.0 mi WSW 17.3 mph 26.5 mph N/A   Overcast
1:18 AM 59.0 °F 50.2 °F 73% 30.02 in 10.0 mi WSW 16.1 mph 24.2 mph N/A   Mostly Cloudy
1:38 AM 58.3 °F 49.5 °F 72% 30.03 in 10.0 mi West 16.1 mph 24.2 mph N/A   Overcast
1:58 AM 57.6 °F 48.2 °F 71% 30.04 in 10.0 mi West 15.0 mph 23.0 mph N/A   Scattered Clouds
2:19 AM 57.2 °F 46.4 °F 67% 30.05 in 10.0 mi West 11.5 mph 24.2 mph N/A   Scattered Clouds
2:38 AM 56.8 °F 46.4 °F 68% 30.06 in 10.0 mi West 12.7 mph 19.6 mph N/A   Scattered Clouds
2:59 AM 56.3 °F 47.3 °F 72% 30.07 in 10.0 mi West 9.2 mph - N/A   Clear
3:18 AM 55.9 °F 47.3 °F 73% 30.07 in 10.0 mi West 10.4 mph - N/A   Clear
3:38 AM 56.3 °F 45.9 °F 68% 30.08 in 10.0 mi WSW 8.1 mph - N/A   Clear
3:59 AM 56.1 °F 45.7 °F 68% 30.08 in 10.0 mi WSW 8.1 mph - N/A   Clear
4:18 AM 55.4 °F 45.7 °F 70% 30.08 in 10.0 mi West 6.9 mph - N/A   Clear
4:38 AM 54.9 °F 46.9 °F 75% 30.08 in 10.0 mi West 6.9 mph - N/A   Clear
4:59 AM 55.4 °F 46.6 °F 72% 30.09 in 10.0 mi West 8.1 mph - N/A   Clear
5:18 AM 55.2 °F 46.4 °F 72% 30.10 in 10.0 mi West 6.9 mph - N/A   Clear
5:38 AM 54.5 °F 46.8 °F 75% 30.11 in 10.0 mi West 8.1 mph - N/A   Clear
5:59 AM 55.4 °F 47.3 °F 74% 30.11 in 10.0 mi West 6.9 mph - N/A   Clear
6:18 AM 54.5 °F 47.8 °F 78% 30.11 in 10.0 mi West 9.2 mph - N/A   Clear
6:38 AM 54.7 °F 47.5 °F 77% 30.13 in 10.0 mi WNW 8.1 mph - N/A   Clear
6:59 AM 52.7 °F 46.4 °F 79% 30.14 in 10.0 mi NW 8.1 mph - N/A   Clear
7:18 AM 52.0 °F 44.8 °F 76% 30.15 in 10.0 mi WNW 9.2 mph - N/A   Scattered Clouds
7:39 AM 51.4 °F 43.2 °F 73% 30.16 in 10.0 mi WNW 8.1 mph - N/A   Scattered Clouds
7:58 AM 50.9 °F 43.9 °F 77% 30.17 in 10.0 mi WNW 8.1 mph - N/A   Scattered Clouds
8:18 AM 50.5 °F 43.7 °F 77% 30.17 in 10.0 mi WNW 10.4 mph 18.4 mph N/A   Clear
8:39 AM 51.1 °F 44.6 °F 78% 30.19 in 10.0 mi West 8.1 mph - N/A   Clear
8:58 AM 51.4 °F 44.6 °F 77% 30.20 in 10.0 mi West 8.1 mph - N/A   Clear
9:18 AM 52.2 °F 44.8 °F 76% 30.20 in 10.0 mi West 5.8 mph - N/A   Clear
9:39 AM 53.1 °F 45.5 °F 75% 30.22 in 10.0 mi West 6.9 mph - N/A   Clear
9:58 AM 53.6 °F 45.5 °F 74% 30.22 in 10.0 mi West 5.8 mph - N/A   Clear
10:18 AM 54.5 °F 45.9 °F 73% 30.23 in 10.0 mi West 6.9 mph - N/A   Scattered Clouds
10:39 AM 55.4 °F 45.9 °F 70% 30.24 in 10.0 mi WNW 8.1 mph - N/A   Scattered Clouds
10:58 AM 55.2 °F 45.7 °F 70% 30.24 in 10.0 mi WNW 9.2 mph - N/A   Mostly Cloudy
11:18 AM 54.9 °F 45.1 °F 70% 30.25 in 10.0 mi NW 6.9 mph - N/A   Overcast
11:39 AM 55.8 °F 45.0 °F 67% 30.25 in 10.0 mi WNW 8.1 mph - N/A   Overcast
11:58 AM 55.2 °F 46.4 °F 72% 30.25 in 10.0 mi West 12.7 mph - N/A   Overcast
12:19 PM 55.0 °F 46.4 °F 73% 30.26 in 10.0 mi West 13.8 mph - N/A   Overcast
12:38 PM 56.3 °F 47.3 °F 72% 30.26 in 10.0 mi West 12.7 mph - N/A   Mostly Cloudy
12:58 PM 57.4 °F 47.3 °F 69% 30.26 in 10.0 mi West 13.8 mph - N/A   Scattered Clouds
1:19 PM 58.1 °F 47.3 °F 67% 30.26 in 10.0 mi West 15.0 mph - N/A   Mostly Cloudy
1:38 PM 57.2 °F 47.8 °F 71% 30.26 in 10.0 mi West 17.3 mph 20.7 mph N/A   Overcast
1:58 PM 56.3 °F 47.1 °F 71% 30.26 in 10.0 mi West 15.0 mph 23.0 mph N/A   Overcast
2:19 PM 55.8 °F 46.8 °F 72% 30.26 in 10.0 mi WNW 10.4 mph - N/A   Overcast
2:38 PM 56.3 °F 46.6 °F 70% 30.27 in 10.0 mi WNW 8.1 mph - N/A   Overcast
2:58 PM 54.5 °F 46.6 °F 75% 30.27 in 10.0 mi NW 8.1 mph 16.1 mph N/A   Overcast
3:19 PM 54.9 °F 46.0 °F 72% 30.27 in 10.0 mi WNW 10.4 mph - N/A   Overcast
3:38 PM 54.7 °F 46.0 °F 73% 30.28 in 10.0 mi WNW 9.2 mph - N/A   Overcast
3:58 PM 54.5 °F 47.1 °F 76% 30.28 in 10.0 mi WNW 11.5 mph - N/A   Overcast
4:19 PM 52.7 °F 47.1 °F 81% 30.29 in 7.0 mi WNW 6.9 mph - N/A   Overcast
4:38 PM 53.6 °F 46.4 °F 77% 30.29 in 10.0 mi West 4.6 mph - N/A   Overcast
4:58 PM 54.1 °F 45.3 °F 72% 30.29 in 10.0 mi WNW 5.8 mph - N/A   Overcast
5:19 PM 52.7 °F 45.7 °F 77% 30.30 in 7.0 mi WNW 9.2 mph - N/A   Light Drizzle
5:38 PM 53.2 °F 44.4 °F 72% 30.30 in 10.0 mi NW 8.1 mph - N/A   Overcast
5:59 PM 53.4 °F 45.0 °F 73% 30.30 in 10.0 mi WNW 8.1 mph - N/A   Overcast
6:18 PM 53.2 °F 44.2 °F 72% 30.31 in 10.0 mi NW 6.9 mph - N/A   Overcast
6:38 PM 52.7 °F 42.6 °F 69% 30.31 in 10.0 mi NW 8.1 mph - N/A   Overcast
6:59 PM 51.8 °F 41.2 °F 67% 30.32 in 10.0 mi NW 8.1 mph - N/A   Scattered Clouds
7:18 PM 51.3 °F 41.2 °F 68% 30.33 in 10.0 mi NW 5.8 mph - N/A   Clear
7:39 PM 50.4 °F 41.2 °F 71% 30.33 in 10.0 mi NNW 6.9 mph - N/A   Scattered Clouds
7:59 PM 49.8 °F 40.5 °F 70% 30.33 in 10.0 mi NNW 8.1 mph - N/A   Scattered Clouds
8:18 PM 49.5 °F 40.1 °F 70% 30.34 in 10.0 mi NNW 12.7 mph 18.4 mph N/A   Scattered Clouds
8:39 PM 48.9 °F 39.6 °F 70% 30.35 in 10.0 mi NNW 11.5 mph - N/A   Clear
8:59 PM 48.6 °F 38.8 °F 69% 30.36 in 10.0 mi NNW 9.2 mph - N/A   Clear
9:18 PM 48.2 °F 39.4 °F 72% 30.36 in 10.0 mi NNW 9.2 mph 17.3 mph N/A   Clear
9:39 PM 47.7 °F 39.2 °F 72% 30.37 in 10.0 mi NNW 5.8 mph - N/A   Clear
9:59 PM 47.1 °F 39.2 °F 74% 30.38 in 10.0 mi NNW 6.9 mph - N/A   Clear
10:18 PM 46.9 °F 39.2 °F 74% 30.38 in 10.0 mi NNW 8.1 mph - N/A   Clear
10:39 PM 46.9 °F 38.3 °F 72% 30.38 in 10.0 mi NW 6.9 mph - N/A   Clear
10:59 PM 46.6 °F 38.7 °F 74% 30.38 in 10.0 mi NW 5.8 mph - N/A   Clear
11:19 PM 46.6 °F 39.2 °F 75% 30.38 in 10.0 mi NW 5.8 mph - N/A   Clear
11:39 PM 46.6 °F 39.2 °F 75% 30.38 in 10.0 mi NW 6.9 mph - N/A   Clear
11:58 PM 46.6 °F 39.2 °F 75% 30.39 in 10.0 mi NW 3.5 mph - N/A   Clear